Location: Karlovy Vary
(50.2170°N, 12.9000°E)
Time: 06:23:17
(UTC+01:00)

ISS - Visible Passes

Search period start: 03 December 2023 00:00
Search period end: 13 December 2023 00:00
Orbit: 415 x 417 km, 51.6° (Epoch: 03 December)

Date Brightness Start Highest point End Pass type
(mag) Time Alt. Az. Time Alt. Az. Time Alt. Az.
03 Dec -1.5 18:17:46 10° W 18:20:28 23° SW 18:22:31 14° S visible
04 Dec -2.0 17:29:03 10° W 17:32:07 32° SSW 17:35:09 10° SSE visible
05 Dec -2.6 16:40:25 10° WNW 16:43:39 46° SSW 16:46:53 10° SE visible
05 Dec -0.4 18:18:58 10° WSW 18:19:44 11° SW 18:20:31 10° SSW visible
06 Dec -0.7 17:29:13 10° W 17:31:23 16° SW 17:33:34 10° S visible
07 Dec -1.1 16:40:11 10° W 16:42:57 24° SW 16:45:42 10° SSE visible
09 Dec -0.1 16:40:43 10° WSW 16:41:54 11° SW 16:43:05 10° SSW visible
